When you browse on this site, cookies collect data to enhance your experience and personalize the content and advertising you see.
Visit our Privacy Policy to learn more. By continuing to use the site, you agree to this use of cookies and data.
  • In Hungary
  • List of Countries
  • For 7 days
  • Water Temperature
  • Satellite Maps
  • Weather Map
  • News
  • Weather Widgets
  • user-avatar
    Login

    Hourly Weather Kipungo

    Today, 26 March, Tuesday

    Time Temperature Precipitation Wind Pressure Humidity
    00:00 +23°C° 0 mm 1 mps 653 mmHg 64%
    01:00 +21°C° 0 mm 2 mps 653 mmHg 74%
    02:00 +22°C° 0 mm 1 mps 653 mmHg 73%
    03:00 +22°C° 0 mm 1 mps 653 mmHg 72%
    04:00 +22°C° 0 mm 1 mps 653 mmHg 72%
    05:00 +23°C° 0 mm 1 mps 654 mmHg 70%
    06:00 +23°C° 0 mm 2 mps 654 mmHg 68%
    07:00 +23°C° 0 mm 2 mps 655 mmHg 64%
    08:00 +25°C° 0 mm 2 mps 655 mmHg 57%
    09:00 +27°C° 0 mm 3 mps 656 mmHg 50%
    10:00 +29°C° 0 mm 3 mps 656 mmHg 43%
    11:00 +31°C° 0 mm 2 mps 656 mmHg 38%
    12:00 +34°C° 0 mm 2 mps 656 mmHg 34%
    13:00 +35°C° 0 mm 1 mps 656 mmHg 29%
    14:00 +34°C° 0 mm 1 mps 655 mmHg 32%
    15:00 +32°C° 0 mm 1 mps 655 mmHg 34%
    16:00 +31°C° 0 mm 1 mps 654 mmHg 36%
    17:00 +29°C° 0.1 mm 1 mps 654 mmHg 45%
    18:00 +27°C° 0.1 mm 1 mps 654 mmHg 55%
    19:00 +25°C° 0.1 mm 2 mps 654 mmHg 64%
    20:00 +24°C° 1 mm 2 mps 654 mmHg 71%
    21:00 +23°C° 1 mm 2 mps 655 mmHg 79%
    22:00 +20°C° 1 mm 2 mps 655 mmHg 87%
    23:00 +20°C° 0.1 mm 3 mps 655 mmHg 87%

    Tomorrow, 27 March, Wednesday

    Time Temperature Precipitation Wind Pressure Humidity
    00:00 +20°C° 0.1 mm 3 mps 655 mmHg 87%
    01:00 +20°C° 0.1 mm 3 mps 655 mmHg 88%
    02:00 +20°C° 0.1 mm 2 mps 655 mmHg 88%
    03:00 +20°C° 0.1 mm 1 mps 654 mmHg 89%
    04:00 +20°C° 0.1 mm 1 mps 654 mmHg 90%
    05:00 +21°C° 0 mm 1 mps 654 mmHg 88%
    06:00 +19°C° 0 mm 0 mps 655 mmHg 86%
    07:00 +19°C° 0 mm 0 mps 655 mmHg 85%
    08:00 +24°C° 0 mm 1 mps 656 mmHg 74%
    09:00 +26°C° 0 mm 2 mps 657 mmHg 63%
    10:00 +28°C° 0 mm 3 mps 657 mmHg 52%
    11:00 +30°C° 0 mm 3 mps 657 mmHg 47%
    12:00 +31°C° 0 mm 3 mps 657 mmHg 41%
    13:00 +34°C° 0 mm 3 mps 656 mmHg 35%
    14:00 +33°C° 0 mm 3 mps 656 mmHg 36%
    15:00 +33°C° 0 mm 3 mps 656 mmHg 36%
    16:00 +33°C° 0 mm 3 mps 655 mmHg 36%
    17:00 +29°C° 0 mm 3 mps 655 mmHg 45%
    18:00 +27°C° 0 mm 2 mps 655 mmHg 54%
    19:00 +25°C° 0 mm 2 mps 654 mmHg 63%
    20:00 +24°C° 0 mm 2 mps 655 mmHg 66%
    21:00 +23°C° 0 mm 2 mps 655 mmHg 68%
    22:00 +23°C° 0 mm 2 mps 655 mmHg 71%
    23:00 +22°C° 0 mm 1 mps 655 mmHg 71%

    Day after tomorrow, 28 March, Thursday

    Time Temperature Precipitation Wind Pressure Humidity
    00:00 +22°C° 0 mm 1 mps 655 mmHg 72%
    01:00 +22°C° 0 mm 1 mps 655 mmHg 73%
    02:00 +21°C° 0.1 mm 1 mps 655 mmHg 76%
    03:00 +20°C° 0.1 mm 1 mps 654 mmHg 80%
    04:00 +20°C° 0.1 mm 1 mps 654 mmHg 83%
    05:00 +20°C° 0 mm 1 mps 654 mmHg 82%
    06:00 +19°C° 0 mm 0 mps 655 mmHg 81%
    07:00 +19°C° 0 mm 0 mps 655 mmHg 79%
    08:00 +25°C° 0 mm 1 mps 656 mmHg 68%
    09:00 +28°C° 0 mm 1 mps 657 mmHg 57%
    10:00 +31°C° 0 mm 1 mps 658 mmHg 46%
    11:00 +32°C° 0 mm 2 mps 657 mmHg 42%
    12:00 +34°C° 0 mm 3 mps 656 mmHg 38%
    13:00 +35°C° 0 mm 3 mps 656 mmHg 34%
    14:00 +34°C° 0 mm 3 mps 655 mmHg 35%
    15:00 +34°C° 0 mm 3 mps 654 mmHg 37%
    16:00 +33°C° 0 mm 3 mps 654 mmHg 39%
    17:00 +30°C° 0 mm 2 mps 654 mmHg 45%
    18:00 +28°C° 0 mm 2 mps 654 mmHg 51%
    19:00 +26°C° 0 mm 1 mps 654 mmHg 57%
    20:00 +25°C° 0.1 mm 1 mps 654 mmHg 60%
    21:00 +24°C° 0.1 mm 1 mps 655 mmHg 63%
    22:00 +23°C° 0.1 mm 1 mps 655 mmHg 66%
    23:00 +22°C° 0.6 mm 1 mps 655 mmHg 75%

    29 March, Friday

    Time Temperature Precipitation Wind Pressure Humidity
    00:00 +21°C° 0.6 mm 1 mps 654 mmHg 83%
    01:00 +20°C° 0.6 mm 1 mps 654 mmHg 92%
    02:00 +20°C° 0.9 mm 1 mps 654 mmHg 92%
    03:00 +20°C° 0.9 mm 1 mps 653 mmHg 93%
    04:00 +20°C° 0.9 mm 1 mps 653 mmHg 94%
    05:00 +21°C° 0 mm 1 mps 653 mmHg 92%
    06:00 +21°C° 0 mm 1 mps 654 mmHg 90%
    07:00 +19°C° 0 mm 0 mps 654 mmHg 88%
    08:00 +24°C° 0 mm 1 mps 655 mmHg 76%
    09:00 +26°C° 0 mm 1 mps 656 mmHg 64%
    10:00 +29°C° 0 mm 2 mps 656 mmHg 53%
    11:00 +30°C° 0 mm 2 mps 656 mmHg 48%
    12:00 +31°C° 0 mm 2 mps 655 mmHg 43%
    13:00 +33°C° 0 mm 3 mps 655 mmHg 39%
    14:00 +31°C° 0 mm 2 mps 654 mmHg 40%
    15:00 +31°C° 0 mm 1 mps 654 mmHg 42%
    16:00 +30°C° 0 mm 1 mps 653 mmHg 44%
    17:00 +28°C° 0 mm 1 mps 653 mmHg 48%
    18:00 +26°C° 0 mm 1 mps 653 mmHg 53%
    19:00 +23°C° 0 mm 0 mps 653 mmHg 57%
    20:00 +22°C° 0 mm 0 mps 653 mmHg 59%
    21:00 +21°C° 0 mm 0 mps 653 mmHg 61%
    22:00 +20°C° 0 mm 0 mps 654 mmHg 63%
    23:00 +21°C° 0.1 mm 0 mps 654 mmHg 65%

    30 March, Saturday

    Time Temperature Precipitation Wind Pressure Humidity
    00:00 +21°C° 0.1 mm 0 mps 654 mmHg 66%
    01:00 +23°C° 0.1 mm 1 mps 653 mmHg 67%
    02:00 +20°C° 0.4 mm 0 mps 653 mmHg 73%
    03:00 +19°C° 0.4 mm 0 mps 653 mmHg 79%
    04:00 +18°C° 0.4 mm 0 mps 652 mmHg 85%
    05:00 +18°C° 0.2 mm 0 mps 653 mmHg 85%
    06:00 +18°C° 0.2 mm 0 mps 653 mmHg 85%
    07:00 +21°C° 0.2 mm 1 mps 654 mmHg 86%
    08:00 +24°C° 0 mm 1 mps 655 mmHg 73%
    09:00 +27°C° 0 mm 1 mps 656 mmHg 60%
    10:00 +31°C° 0 mm 1 mps 657 mmHg 47%
    11:00 +31°C° 0 mm 1 mps 656 mmHg 43%
    12:00 +32°C° 0 mm 2 mps 655 mmHg 38%
    13:00 +32°C° 0 mm 2 mps 655 mmHg 34%
    14:00 +32°C° 0 mm 2 mps 654 mmHg 37%
    15:00 +31°C° 0 mm 2 mps 654 mmHg 41%
    16:00 +30°C° 0 mm 2 mps 653 mmHg 44%
    17:00 +28°C° 0.2 mm 1 mps 653 mmHg 55%
    18:00 +25°C° 0.2 mm 1 mps 653 mmHg 66%
    19:00 +23°C° 0.2 mm 1 mps 653 mmHg 77%
    20:00 +22°C° 2.8 mm 1 mps 654 mmHg 82%
    21:00 +21°C° 2.8 mm 2 mps 654 mmHg 87%
    22:00 +20°C° 2.8 mm 2 mps 654 mmHg 92%
    23:00 +20°C° 2.3 mm 2 mps 654 mmHg 92%

    31 March, Sunday

    Time Temperature Precipitation Wind Pressure Humidity
    00:00 +20°C° 2.3 mm 2 mps 654 mmHg 93%
    01:00 +20°C° 2.3 mm 2 mps 654 mmHg 94%
    02:00 +19°C° 0 mm 2 mps 653 mmHg 94%
    03:00 +20°C° 0 mm 1 mps 653 mmHg 94%
    04:00 +20°C° 0 mm 1 mps 653 mmHg 94%
    05:00 +20°C° 0 mm 1 mps 653 mmHg 93%
    06:00 +20°C° 0 mm 1 mps 654 mmHg 93%
    07:00 +20°C° 0 mm 1 mps 654 mmHg 92%
    08:00 +22°C° 0 mm 1 mps 654 mmHg 86%
    09:00 +23°C° 0 mm 1 mps 655 mmHg 79%
    10:00 +25°C° 0 mm 1 mps 655 mmHg 73%
    11:00 +26°C° 0.5 mm 1 mps 655 mmHg 68%
    12:00 +28°C° 0.5 mm 1 mps 654 mmHg 63%
    13:00 +27°C° 0.5 mm 0 mps 654 mmHg 58%
    14:00 +29°C° 0.1 mm 1 mps 654 mmHg 59%
    15:00 +28°C° 0.1 mm 1 mps 653 mmHg 59%
    16:00 +27°C° 0.1 mm 1 mps 653 mmHg 59%
    17:00 +26°C° 0.1 mm 1 mps 653 mmHg 64%
    18:00 +25°C° 0.1 mm 1 mps 653 mmHg 70%
    19:00 +23°C° 0.1 mm 1 mps 653 mmHg 75%
    20:00 +22°C° 0.7 mm 1 mps 653 mmHg 79%
    21:00 +22°C° 0.7 mm 1 mps 654 mmHg 83%
    22:00 +21°C° 0.7 mm 1 mps 654 mmHg 87%
    23:00 +19°C° 0.7 mm 0 mps 654 mmHg 88%
    Show more